Kirksville, MO

5:55 AM CDT on April 20, 2018 (GMT -0500)
Kirksville Regional

Weather History for KIRK - October, 2010

Change the Weather History Date:

Thursday, October 28, 2010

  Actual Average Record
Temperature  
Mean Temperature 40 °F 49 °F  
Max Temperature 50 °F 59 °F 83 °F (1927)
Min Temperature 30 °F 38 °F 12 °F (1925)
Degree Days  
Heating Degree Days 25 16  
Month to date heating degree days 240 329  
Since 1 July heating degree days 306 436  
Cooling Degree Days 0 0  
Month to date cooling degree days 5 10  
Year to date cooling degree days 1143 937  
Moisture  
Dew Point 28 °F    
Average Humidity 59    
Maximum Humidity 75    
Minimum Humidity 42    
Precipitation  
Precipitation 0.03 in 0.09 in 1.73 in (1921)
Month to date precipitation 0.56 3.06  
Year to date precipitation 49.84 34.58  
Sea Level Pressure  
Sea Level Pressure 30.33 in    
Wind  
Wind Speed 10 mph (WNW)    
Max Wind Speed 18 mph    
Max Gust Speed 29 mph    
Visibility 10 miles    
Events      
T = Trace of Precipitation, MM = Missing Value Source: NWS Daily Summary

Daily Weather History Graph

Daily Weather History Graph

Search for Another Location

Airport or City:

Astronomy

Oct. 28, 2010 Rise Set
Actual Time 7:34 AM CDT 6:12 PM CDT
Civil Twilight 7:06 AM CDT 6:40 PM CDT
Nautical Twilight 6:35 AM CDT 7:12 PM CDT
Astronomical Twilight 6:03 AM CDT 7:43 PM CDT
Moon 10:43 PM CDT (10/28) 12:55 PM CDT (10/28)
Length of Visible Light 11h 33m
Length of Day
10h 37m
Waning Gibbous, 70% of the Moon is Illuminated
Oct 28
Waning Gibbous
Oct 30
Last Quarter
Nov 5
New
Nov 13
First Quarter
Nov 21
Full

Hourly Weather History & Observations

Time (CDT) Temp. Windchill Dew Point Humidity Pressure Visibility Wind Dir Wind Speed Gust Speed Precip Events Conditions
12:55 AM 39.9 °F 32.1 °F 28.0 °F 63% 30.11 in 10.0 mi WNW 13.8 mph 21.9 mph N/A   Clear
1:55 AM 39.0 °F 31.8 °F 28.0 °F 65% 30.13 in 10.0 mi WNW 11.5 mph - N/A   Partly Cloudy
2:55 AM 39.0 °F 31.4 °F 28.0 °F 65% 30.15 in 10.0 mi WNW 12.7 mph 24.2 mph N/A   Overcast
3:55 AM 39.0 °F 31.4 °F 28.0 °F 65% 30.17 in 10.0 mi WNW 12.7 mph 19.6 mph N/A   Overcast
4:55 AM 39.0 °F 32.3 °F 28.0 °F 65% 30.19 in 10.0 mi NW 10.4 mph - N/A   Overcast
5:55 AM 39.0 °F 29.6 °F 28.0 °F 65% 30.22 in 10.0 mi NW 18.4 mph 28.8 mph N/A   Overcast
6:55 AM 39.0 °F 32.3 °F 28.0 °F 65% 30.26 in 10.0 mi WNW 10.4 mph 19.6 mph N/A   Overcast
7:55 AM 37.9 °F 30.0 °F 28.0 °F 68% 30.30 in 10.0 mi WNW 12.7 mph 19.6 mph N/A   Overcast
8:55 AM 39.0 °F 31.8 °F 28.9 °F 67% 30.33 in 10.0 mi NW 11.5 mph - N/A   Overcast
9:55 AM 39.9 °F 32.9 °F 28.9 °F 65% 30.35 in 10.0 mi NW 11.5 mph - N/A   Overcast
10:55 AM 42.1 °F 34.9 °F 30.0 °F 62% 30.37 in 10.0 mi WNW 13.8 mph 18.4 mph N/A   Overcast
11:55 AM 43.0 °F 36.4 °F 30.0 °F 60% 30.39 in 10.0 mi West 12.7 mph - 0.01 in   Overcast
12:55 PM 45.0 °F 38.2 °F 30.0 °F 56% 30.38 in 10.0 mi WNW 15.0 mph 20.7 mph 0.01 in   Mostly Cloudy
1:05 PM 46.4 °F 41.1 °F 30.2 °F 53% 30.35 in 10.0 mi West 11.5 mph 19.6 mph N/A   Scattered Clouds
1:55 PM 46.9 °F - 28.9 °F 50% 30.37 in 10.0 mi WNW 16.1 mph 21.9 mph 0.01 in   Clear
2:55 PM 50.0 °F - 30.0 °F 46% 30.37 in 10.0 mi WNW 12.7 mph 17.3 mph N/A   Clear
3:55 PM 48.9 °F - 28.0 °F 44% 30.37 in 10.0 mi WNW 11.5 mph - N/A   Clear
4:55 PM 48.9 °F - 27.0 °F 43% 30.39 in 10.0 mi WNW 12.7 mph - N/A   Clear
5:55 PM 46.0 °F 41.0 °F 26.1 °F 46% 30.40 in 10.0 mi WNW 10.4 mph - N/A   Clear
6:55 PM 41.0 °F 36.4 °F 26.1 °F 55% 30.41 in 10.0 mi WNW 6.9 mph - N/A   Clear
7:55 PM 39.0 °F 35.7 °F 25.0 °F 57% 30.43 in 10.0 mi WNW 4.6 mph - N/A   Clear
8:55 PM 34.0 °F 29.8 °F 26.1 °F 73% 30.43 in 10.0 mi West 4.6 mph - N/A   Clear
9:55 PM 33.1 °F 28.7 °F 25.0 °F 72% 30.44 in 10.0 mi WNW 4.6 mph - N/A   Clear
10:55 PM 32.0 °F 28.7 °F 24.1 °F 73% 30.45 in 10.0 mi WNW 3.5 mph - N/A   Clear
11:55 PM 33.1 °F 28.7 °F 23.0 °F 66% 30.46 in 10.0 mi WNW 4.6 mph - N/A   Clear